Погода в Перехвале

Россия / Липецкая область     53°08′18″N   39°05′56″E
темп.,
°C
ветер,
м/с
пор.,
м/с
влажн.,
%
обл.,
%
осадки,
мм/ч
давл.,
гПа
погр.,
м
13 мая, чт
чт1300:00+7в4794100 0.0 1019135
03:00+7в4119599 0.0 1019218
06:00+8вюв51392100 0.0 1018363
09:00+12вюв6108086 0.0 1018577
12:00+17ююв7106498 0.1 10171488
15:00+17юв586919 1.5 10161080
18:00+15ю338164 1.3 101555
21:00+12ююв34915 3.4 101650
14 мая, пт
пт1400:00+12ю2390100 0.0 101757
03:00+12вюв3391100 0.0 101733
06:00+12юв389377 0.4 1017219
09:00+16юв597942 1.0 1016423
12:00+21юв71066100 0.0 10151023
15:00+23ююв71266100 0.3 10131565
18:00+20юв71470100 0.5 1012489
21:00+18ююв5137879 0.6 1011272
15 мая, сб
сб1500:00+18ююв4138489 0.0 1010336
03:00+15ю399514 1.5 1011223
06:00+16ю3796100 0.9 1010183
09:00+18ююз5788100 1.6 1011344
12:00+21юз4567100 1.0 1011693
15:00+22ююз69605 1.1 10121778
18:00+20ююз47685 0.3 1012390
21:00+16зюз33824 0.4 101329
16 мая, вс
вс1600:00+14ююз33855 0.0 101438
03:00+13ююз338473 0.0 101429
06:00+14ююз3485100 0.0 1015104
09:00+19юз34705 0.0 1015481
12:00+22юз23570 0.0 10151192
15:00+23юз234912 0.0 10151762
18:00+23в1262100 0.0 101456
21:00+17в3374100 0.2 101437
17 мая, пн
пн1700:00+15св468741 0.9 1015103
03:00+14всв410928 0.9 1014189
06:00+15всв4109163 0.0 1013208
09:00+20вюв587246 0.0 1013410
12:00+24юв61151100 0.0 1013933
15:00+25юв61051100 0.0 10121228
18:00+22вюв5126416 0.0 1011374
21:00+18вюв41381100 0.0 1011252